Wind_Speed
12 12 13 13 13 13 14 14 14 14 14 14 15 16 16 17 18 18 18 19 19 19 20 20 20 21 20 21 21 20 20 19 19 19 19 19 19 20
14 14 14 15 15 15 15 15 16 16 16 16 16 16 17 18 19 19 20 20 20 20 20 21 21 21 21 21 21 22 21 21 22 22 22 22 22 22
15 16 16 16 16 16 16 16 17 17 17 18 18 18 18 19 20 20 21 21 22 22 22 22 23 22 22 21 21 21 22 22 23 23 23 23 23 23
16 17 17 17 18 18 18 18 19 19 20 20 20 21 21 21 21 22 22 22 23 23 24 24 24 24 24 23 23 23 23 23 24 24 24 24 24 24
18 18 19 19 20 20 20 21 21 21 22 23 22 22 22 23 23 23 23 23 23 23 24 25 25 25 25 24 24 24 24 24 25 25 25 25 25 25
21 21 21 21 21 22 23 23 23 24 24 24 24 24 24 24 24 24 24 25 25 25 25 26 25 25 25 25 24 24 25 25 25 25 26 26 26 27
24 24 24 24 24 24 25 25 25 25 25 25 25 25 25 26 26 26 25 26 26 27 27 26 25 26 26 26 26 26 26 26 26 26 26 27 27 28
27 27 27 27 27 27 27 27 27 27 27 26 26 26 26 26 27 27 27 27 27 27 27 26 27 27 27 27 27 26 26 27 27 27 27 27 28 29
29 29 30 30 29 29 29 28 28 28 27 27 27 27 27 27 28 28 28 28 28 28 27 27 27 27 27 27 27 27 27 27 27 27 28 28 28 29
30 31 31 30 30 30 30 29 29 29 29 29 28 28 28 28 28 29 29 29 29 28 28 28 28 28 28 27 27 27 27 27 27 28 28 29 29 30
31 31 31 31 31 31 32 31 31 31 31 31 30 30 29 29 30 30 30 30 29 29 29 29 29 29 28 28 28 28 28 28 28 28 29 29 30 31
33 33 33 33 33 33 33 33 33 32 32 32 31 31 31 31 31 31 31 31 30 30 30 30 29 29 29 29 29 29 29 29 30 30 30 30 30 31
35 35 35 36 36 36 36 35 35 35 35 34 33 32 32 33 33 32 32 32 31 30 30 30 30 30 30 30 30 30 30 30 30 30 30 30 31 31
36 36 37 37 37 37 37 36 37 37 36 35 35 34 34 34 34 33 32 32 32 31 31 31 31 31 31 30 30 31 31 30 31 31 31 31 32 32
37 38 38 38 38 37 37 38 38 38 37 37 36 36 35 35 35 34 33 33 33 33 32 32 32 32 32 31 31 30 31 31 32 32 32 32 32 33
38 38 37 37 38 38 37 37 37 38 37 37 38 37 37 36 36 35 35 34 34 33 33 33 33 33 32 32 32 32 32 32 32 32 33 33 33 34
38 38 38 38 37 37 37 37 37 37 37 38 38 38 37 38 37 37 35 35 35 35 34 34 35 35 34 33 33 33 33 33 33 33 34 34 34 34
38 38 37 36 36 36 36 37 37 37 37 37 38 38 38 38 38 37 36 36 35 35 35 35 36 36 35 35 34 34 34 34 33 33 34 34 34 35
38 37 36 35 34 34 35 35 36 36 37 38 38 38 38 37 37 37 37 37 37 37 37 36 37 36 36 35 34 33 34 34 34 34 34 34 34 34
38 38 37 36 35 34 35 35 35 35 36 37 37 38 37 37 37 37 37 37 36 36 36 37 37 37 36 35 34 33 33 34 34 34 34 34 34 34
38 37 36 36 36 35 35 35 35 35 35 35 35 35 35 36 37 37 37 36 37 37 37 37 36 36 36 35 34 34 34 35 35 35 34 34 34 34
36 36 36 36 36 36 35 35 35 34 35 35 35 35 36 36 37 38 37 37 38 38 38 37 36 36 36 35 35 35 35 35 35 35 34 34 35 35
36 36 36 36 36 36 36 35 35 35 35 36 36 36 36 36 37 37 38 38 38 37 36 36 36 36 35 34 34 34 34 34 34 35 35 35 35 35
Wind_Direction
288 289 291 289 291 293 292 290 290 291 292 292 288 286 286 286 286 285 287 287 286 285 285 284 282 281 282 281 279 278 278 279 279 279 279 280 281 280
286 286 289 292 289 291 291 290 290 291 293 292 291 291 290 289 289 288 287 287 285 286 286 285 283 282 281 280 279 277 276 277 278 278 278 279 280 280
286 285 286 287 287 287 288 287 288 289 291 291 292 292 292 292 293 292 292 289 287 285 285 284 282 281 280 280 279 279 276 276 277 279 278 278 279 281
285 286 285 285 285 285 286 285 285 286 287 287 289 290 291 291 292 293 292 292 290 287 285 285 283 281 280 279 280 280 279 279 279 279 279 278 278 279
284 285 286 285 286 286 286 286 285 285 286 286 287 288 290 290 290 291 292 292 291 289 289 286 283 281 280 280 281 280 280 281 280 280 278 278 278 278
282 284 284 285 286 285 284 284 283 284 285 285 285 286 288 289 289 289 290 291 291 289 289 287 283 282 281 282 282 281 282 282 281 279 278 278 277 278
282 283 283 284 285 287 286 284 283 282 284 284 284 285 286 287 286 287 288 289 290 290 289 287 285 284 283 282 283 283 283 283 282 281 279 279 279 279
280 281 281 282 283 284 286 285 284 283 283 282 281 283 284 285 286 287 288 289 290 289 288 288 286 285 283 284 284 283 282 281 282 282 282 282 281 281
278 278 279 281 282 283 284 283 282 282 282 280 280 281 282 284 285 285 287 287 288 289 288 287 286 285 284 284 284 284 283 282 282 281 282 283 283 282
280 278 277 279 280 281 281 280 279 279 279 280 279 279 280 281 283 284 286 286 287 289 289 288 285 285 284 283 284 283 283 283 283 283 283 283 283 283
278 277 277 278 279 279 279 279 279 279 279 279 278 278 277 278 279 282 284 286 286 287 287 287 286 285 284 284 283 283 283 283 284 284 284 284 284 284
275 276 277 278 279 279 279 279 279 279 279 279 277 277 277 278 279 280 283 284 284 285 286 286 286 286 285 285 285 284 283 283 284 284 285 285 285 286
275 276 277 277 277 277 276 277 277 277 277 277 277 276 275 277 279 281 281 282 283 284 285 285 286 285 285 285 285 285 284 285 286 285 286 287 286 286
274 275 277 277 277 275 275 275 275 275 275 275 276 276 275 276 277 279 281 281 282 284 285 285 285 285 285 285 285 284 284 285 287 287 287 288 287 287
273 273 275 275 275 275 275 274 274 274 275 274 275 275 274 275 276 277 278 279 280 281 283 283 284 284 284 284 285 285 285 286 287 287 288 289 289 288
273 274 274 275 275 274 274 274 273 273 273 273 274 272 273 273 274 275 274 275 277 279 281 281 282 282 282 283 284 285 285 287 288 288 289 289 289 289
273 273 275 274 274 274 273 273 272 273 273 272 272 271 270 271 271 272 273 274 276 278 280 280 281 281 280 282 282 282 283 284 285 286 286 287 288 288
273 274 274 273 273 274 273 272 273 273 273 273 272 270 269 269 269 269 271 274 276 277 278 279 279 279 279 280 280 281 282 283 284 285 285 286 288 288
273 273 273 273 273 273 273 273 273 273 272 272 270 269 269 269 269 269 270 273 275 276 277 278 278 279 279 280 279 279 280 282 284 285 286 286 287 289
273 273 273 272 272 272 272 273 272 272 272 272 271 270 268 268 270 271 272 273 275 276 277 277 278 279 279 278 278 279 280 282 283 284 285 286 287 288
273 272 272 271 270 270 271 272 272 272 272 273 272 271 270 269 270 272 273 273 274 276 277 277 277 277 277 277 278 280 281 282 284 284 285 286 288 289
272 272 271 270 270 269 270 271 270 270 271 272 273 273 273 272 271 270 271 273 273 275 276 275 275 275 276 277 279 280 280 280 281 283 284 285 287 288
270 271 270 269 269 269 269 269 270 270 271 272 272 273 273 273 273 273 273 272 273 273 274 274 274 275 277 278 279 280 281 280 281 282 283 285 286 288
Height
5874 5873 5872 5872 5871 5870 5869 5869 5868 5867 5866 5865 5864 5862 5861 5860 5860 5859 5858 5856 5855 5854 5853 5852 5851 5850 5850 5849 5848 5847 5846 5845 5845 5844 5843 5842 5842 5841
5871 5870 5869 5868 5867 5866 5865 5864 5864 5863 5862 5861 5859 5858 5857 5856 5855 5854 5853 5851 5850 5849 5848 5847 5846 5845 5844 5843 5842 5842 5841 5840 5839 5839 5838 5837 5836 5835
5867 5866 5865 5864 5863 5862 5861 5860 5859 5858 5857 5856 5855 5854 5853 5851 5850 5849 5847 5846 5845 5844 5843 5841 5840 5839 5838 5837 5836 5836 5835 5834 5833 5833 5832 5831 5830 5829
5863 5862 5861 5859 5858 5857 5856 5855 5854 5853 5852 5851 5850 5848 5847 5846 5845 5843 5842 5840 5839 5838 5837 5835 5834 5833 5832 5831 5830 5829 5829 5828 5827 5826 5825 5825 5824 5823
5858 5857 5856 5854 5853 5852 5851 5850 5849 5848 5847 5845 5844 5843 5841 5840 5839 5837 5836 5834 5833 5831 5830 5829 5828 5826 5826 5825 5824 5823 5822 5821 5820 5819 5818 5818 5817 5816
5852 5851 5850 5849 5847 5846 5845 5843 5842 5841 5840 5839 5837 5836 5835 5833 5832 5831 5829 5828 5826 5825 5823 5822 5820 5819 5818 5818 5817 5816 5815 5814 5813 5812 5811 5810 5809 5809
5845 5844 5843 5842 5841 5840 5838 5837 5835 5834 5833 5831 5830 5829 5828 5826 5825 5824 5822 5821 5819 5818 5816 5814 5813 5812 5811 5810 5809 5809 5808 5807 5805 5804 5804 5803 5802 5801
5838 5837 5836 5835 5834 5832 5831 5829 5828 5827 5825 5824 5823 5822 5820 5819 5818 5816 5815 5813 5812 5811 5808 5807 5806 5805 5804 5803 5802 5801 5800 5799 5798 5797 5796 5795 5794 5793
5829 5828 5827 5827 5826 5824 5823 5821 5820 5819 5818 5816 5815 5814 5813 5811 5810 5808 5807 5806 5804 5803 5801 5799 5798 5797 5796 5795 5794 5793 5792 5791 5790 5789 5788 5787 5786 5785
5820 5819 5819 5818 5817 5815 5814 5813 5812 5810 5809 5808 5807 5806 5805 5803 5802 5800 5799 5797 5796 5795 5793 5792 5790 5789 5788 5787 5786 5785 5784 5783 5782 5781 5780 5779 5777 5776
5811 5810 5809 5809 5808 5806 5805 5804 5803 5802 5800 5799 5798 5797 5796 5795 5793 5792 5791 5789 5788 5787 5785 5784 5782 5781 5780 5779 5778 5777 5776 5775 5773 5772 5771 5770 5769 5767
5801 5800 5800 5799 5798 5796 5795 5794 5793 5792 5791 5790 5789 5788 5787 5786 5784 5783 5782 5781 5780 5779 5777 5775 5774 5772 5771 5770 5769 5768 5767 5766 5765 5764 5762 5761 5760 5758
5791 5790 5789 5788 5787 5786 5785 5784 5783 5782 5781 5780 5779 5778 5778 5777 5775 5774 5773 5772 5771 5770 5769 5767 5765 5764 5763 5762 5761 5759 5758 5757 5755 5754 5753 5752 5750 5749
5780 5779 5778 5777 5776 5774 5774 5773 5772 5771 5770 5770 5769 5769 5768 5767 5766 5765 5764 5763 5761 5760 5759 5758 5757 5755 5754 5753 5752 5750 5749 5748 5746 5745 5744 5742 5741 5739
5768 5767 5766 5765 5764 5763 5762 5761 5760 5760 5759 5759 5759 5758 5757 5756 5755 5755 5754 5753 5752 5751 5750 5749 5748 5747 5745 5744 5743 5741 5740 5739 5737 5736 5734 5733 5731 5729
5756 5755 5755 5753 5752 5751 5750 5750 5749 5749 5749 5748 5747 5747 5746 5745 5745 5744 5744 5743 5743 5742 5741 5740 5738 5737 5736 5735 5733 5732 5731 5729 5728 5726 5724 5723 5721 5719
5743 5743 5742 5741 5740 5739 5739 5738 5738 5737 5737 5737 5736 5736 5735 5734 5734 5734 5733 5733 5732 5732 5731 5730 5729 5727 5726 5725 5724 5722 5721 5719 5718 5716 5714 5713 5711 5709
5732 5731 5730 5729 5728 5728 5727 5727 5726 5726 5725 5725 5724 5724 5724 5723 5723 5722 5722 5722 5721 5721 5720 5719 5718 5717 5716 5715 5714 5712 5710 5709 5707 5706 5704 5702 5701 5699
5720 5719 5719 5718 5717 5717 5716 5716 5715 5715 5714 5713 5713 5713 5712 5712 5712 5711 5711 5711 5711 5710 5709 5708 5707 5706 5705 5704 5703 5702 5700 5698 5697 5696 5694 5692 5690 5689
5708 5707 5707 5707 5706 5706 5705 5705 5704 5703 5703 5702 5701 5701 5701 5701 5701 5700 5700 5700 5700 5699 5698 5697 5696 5695 5694 5693 5692 5691 5689 5688 5687 5685 5684 5682 5680 5678
5696 5696 5695 5695 5695 5695 5694 5694 5693 5692 5692 5691 5690 5690 5689 5689 5689 5689 5689 5689 5689 5688 5687 5687 5686 5685 5683 5682 5681 5680 5680 5678 5676 5675 5673 5671 5670 5668
5684 5684 5683 5683 5683 5683 5683 5682 5682 5681 5681 5680 5680 5679 5679 5678 5678 5678 5678 5678 5677 5677 5676 5676 5675 5673 5672 5671 5670 5670 5669 5668 5666 5664 5663 5662 5659 5658
5672 5672 5671 5671 5671 5671 5671 5671 5671 5670 5670 5669 5669 5668 5667 5667 5667 5667 5666 5666 5666 5666 5665 5664 5663 5662 5662 5661 5660 5659 5658 5657 5655 5654 5653 5651 5649 5647